Location: Unspecified
(51.5147°N, 7.4673°E)
Time: 06:11:02
(UTC+01:00)

A-11 Canister half - Pass Details

Date: 21 February 2026
Orbit: 1524 x 1683 km, 47.3° (Epoch: 14 March)

Event Time Altitude Azimuth Distance (km) Brightness Sun altitude
Rises 21:07:08 0° 282° (WNW) 4,685 12.7 -29.9°
Reaches altitude 10° 21:10:18 10° 278° (W) 3,696 11.8 -30.4°
Maximum altitude 21:19:03 49° 207° (SSW) 1,902 9.4 -31.6°
Enters shadow 21:20:43 45° 179° (S) 1,999 9.3 -31.9°
